SCP
0 0 0 0 0 0 0 0 0 0 0 0 0 0 0 0 0 0 0 0 0 0 0 0 0 0 0 0 0 0 0 0 0 0 0 0 0 0 -0 -0 -0 -0 -0 -0
0 0 0 0 0 0 0 0 0 0 0 0 0 0 0 0 0 0 0 0 0 0 0 0 0 0 0 0 0 0 0 0 0 0 0 0 0 0 -0 -0 -0 -0 -0 -0
0 0 0 0 0 0 0 0 0 0 0 0 0 0 0 0 0 0 0 0 0 0 0 0 0 0 0 0 0 0 0 0 0 0 0 0 0 0 0 0 0 0 0 0
0 0 0 0 0 0 0 0 0 0 0 0 0 0 0 0 0 0 0 0 0 0 0 0 0 0 0 0 0 0 0 0 0 0 0 0 0 0 0 0 0 0 0 0
0 0 0 0 0 0 0 0 0 0 0 0 0 0 0 0 0 0 0 0 0 0 0 0 0 0 0 0 0 0 0 0 0 0 0 0 0 0 0 0 0 0 0 0
0 0 0 0 0 0 0 0 0 0 0 0 0 0 0 0 0 0 0 0 0 0 0 0 0 0 0 0 0 0 0 0 0 0 0 0 0 0 0 0 0 0 0 0
0 0 0 0 0 0 0 0 0 0 0 0 0 0 0 0 0 0 0 0 0 0 0 0 0 0 0 0 0 0 0 0 0 0 0 0 0 0 0 0 0 0 0 0
0 0 0 0 0 0 0 0 0 0 0 0 0 0 0 0 0 0 0 0 0 0 0 0 0 0 0 0 0 0 0 0 0 0 0 0 0 0 0 0 0 0 0 0
0 0 0 0 0 0 0 0 0 0 0 0 0 0 0 0 0 0 0 0 0 0 0 0 0 0 0 0 0 0 0 0 0 0 0 0 0 0 0 0 0 0 0 0
0 0 0 0 0 0 0 0 0 0 0 0 0 0 0 0 0 0 0 0 0 0 0 0 0 0 0 0 0 0 0 0 0 0 0 0 0 0 0 0 0 0 0 0
0 0 0 0 0 0 0 0 0 0 0 0 0 0 0 0 0 0 0 0 0 0 0 0 0 0 0 0 0 0 0 0 0 0 0 0 0 0 0 0 0 0 0 0
0 0 0 0 0 0 0 0 0 0 0 0 0 0 0 0 0 0 0 0 0 0 0 0 0 0 0 0 0 0 0 0 0 0 0 0 0 0 0 0 0 0 0 0
0 0 0 0 0 0 0 0 0 0 0 0 0 0 0 0 0 0 0 0 0 0 0 0 0 0 0 0 0 0 0 0 0 0 0 0 0 0 0 0 0 0 0 0
0 0 0 0 0 0 0 0 0 0 0 0 0 0 0 0 0 0 0 0 0 0 0 0 0 0 0 0 0 0 0 0 -0 0 0 0 0 0 0 0 0 0 0 0
0 0 0 0 0 0 0 0 0 0 0 0 0 0 0 0 0 0 0 0 0 0 0 0 0 0 0 0 0 0 0 0 0 0 0 0 0 0 0 0 0 0 0 0
0 0 0 0 0 0 0 0 0 0 0 0 0 0 0 0 0 0 0 0 0 0 0 0 0 0 0 0 0 0 0 -0 -0 0 0 0 0 0 0 0 0 0 0 0
0 0 0 0 0 0 0 0 0 0 0 0 0 0 0 0 0 0 0 0 0 0 0 0 0 0 0 0 0 0 0 0 0 0 0 0 0 0 0 0 0 0 0 0
0 0 0 0 0 0 0 0 0 0 0 0 0 0 0 0 0 0 0 0 0 0 0 0 0 0 0 0 0 0 0 0 0 0 0 0 0 0 0 0 0 0 0 0
0 0 0 0 0 0 0 0 0 0 0 0 0 0 0 0 0 0 0 0 0 0 0 0 0 0 0 0 0 0 0 0 0 0 0 0 0 0 0 0 0 0 0 0
0 0 0 0 0 0 0 0 0 0 0 0 0 0 0 0 0 0 0 0 0 0 0 0 0 0 0 0 0 0 0 0 0 0 0 0 0 0 0 0 0 0 0 0
0 0 0 0 0 0 0 0 0 0 0 0 0 0 0 0 0 0 0 0 0 0 0 0 0 0 0 0 0 0 0 0 0 0 0 0 0 0 0 0 0 0 0 0
0 0 0 0 0 0 0 0 0 0 0 0 0 0 0 0 0 0 0 0 0 0 0 0 0 0 0 0 0 0 0 0 0 0 0 0 0 0 0 0 0 0 0 0
0 0 0 0 0 0 0 0 0 0 0 0 0 0 0 0 0 0 0 0 0 0 0 0 0 0 0 0 0 0 0 0 0 0 0 0 0 0 0 0 0 0 0 0
0 0 0 0 0 0 0 0 0 0 0 0 0 0 0 0 0 0 0 0 0 0 0 0 0 0 0 0 0 0 0 0 0 0 0 0 0 0 0 0 0 0 0 0
0 0 0 0 0 0 0 0 0 0 0 0 0 0 0 0 0 0 0 0 0 0 0 0 0 0 0 0 0 0 0 0 0 0 0 0 0 0 0 0 0 0 0 0
0 0 0 0 0 0 0 0 0 0 0 0 0 0 0 0 0 0 0 0 0 0 0 0 0 0 0 0 0 0 0 0 0 0 0 0 0 0 0 0 0 0 0 0
0 0 0 0 0 0 0 0 0 0 0 0 0 0 0 0 -0 0 0 0 0 0 0 0 0 0 0 0 0 0 0 0 0 0 0 0 0 0 0 0 0 0 0 0
Wind_Speed_500mb
10 7 6 7 17 15 13 22 15 41 35 38 28 9 5 6 6 26 28 32 29 31 26 20 20 21 25 30 37 42 45 47 50 58 63 66 69 74 79 83 87 89 94 96
9 9 8 13 30 21 27 29 33 39 46 35 8 7 12 16 14 17 16 23 30 28 25 25 26 28 28 30 34 42 43 48 54 64 67 71 76 83 89 96 101 105 109 109
10 5 6 15 28 30 21 22 14 18 21 6 9 13 13 12 9 9 12 15 14 20 28 28 27 29 35 40 46 46 48 54 62 65 72 77 85 94 100 105 108 109 111 111
7 7 3 17 7 11 16 14 10 4 9 16 15 15 10 11 18 22 19 19 25 26 26 22 29 36 39 44 48 52 60 65 69 73 79 86 93 99 102 103 107 110 113 114
7 10 12 25 11 11 9 14 12 12 8 26 19 5 12 10 7 8 18 26 26 26 28 30 35 40 44 46 52 60 63 69 76 84 90 93 94 95 97 100 105 107 110 113
6 11 19 11 7 20 14 18 22 25 22 24 13 3 9 19 27 38 43 40 33 31 37 44 43 45 51 56 60 62 68 77 85 88 89 92 93 95 96 97 102 102 103 96
28 12 14 12 15 16 9 16 12 23 39 28 10 21 27 37 33 36 43 36 36 41 46 44 45 50 54 57 58 67 78 85 85 85 86 88 92 92 96 98 97 91 88 83
4 2 15 24 7 15 16 18 15 27 31 32 35 43 45 41 37 39 40 41 44 44 43 45 49 52 54 55 63 75 81 83 83 83 84 85 87 91 89 83 82 83 85 85
19 14 12 44 22 30 24 23 24 27 38 50 52 47 41 43 47 42 45 47 48 48 49 49 50 51 53 59 70 77 80 81 81 83 83 81 83 82 76 73 76 79 79 81
7 12 23 43 48 46 49 46 48 48 46 44 51 41 48 48 49 48 51 50 52 53 51 50 48 48 55 62 70 74 77 76 77 81 82 82 77 67 69 70 74 78 82 90
12 23 36 50 62 67 69 62 66 62 55 54 45 46 49 54 55 56 56 55 53 51 49 48 47 50 55 62 69 72 71 71 74 78 79 81 73 65 67 66 65 74 82 85
26 45 36 46 58 58 53 52 51 45 44 46 49 51 54 56 55 54 53 53 51 48 50 47 48 54 55 60 64 65 67 68 72 75 76 76 73 74 63 65 61 64 67 70
57 68 67 73 72 69 64 59 51 50 56 56 54 52 52 51 52 52 50 48 50 51 49 45 52 53 54 56 57 55 61 63 68 68 71 72 69 72 82 78 72 65 60 63
68 72 55 69 55 72 65 63 60 55 51 49 50 51 49 50 50 48 47 47 48 50 46 48 52 49 53 53 52 51 54 56 61 61 64 64 64 67 71 76 82 87 77 66
75 72 77 75 71 65 55 50 49 49 48 49 49 48 48 47 46 45 44 44 49 49 45 49 51 46 48 47 46 47 49 52 55 55 58 58 59 64 68 72 73 77 81 75
74 67 68 63 66 66 57 51 48 49 48 47 46 45 46 45 44 41 41 45 51 48 45 49 50 48 44 43 42 42 44 47 50 50 51 52 55 61 66 67 68 70 71 71
48 55 57 54 56 51 45 39 40 41 43 44 41 39 39 40 42 42 41 45 49 49 48 49 50 43 39 39 37 38 41 42 44 44 45 46 50 53 57 58 60 63 63 60
62 59 48 34 26 34 36 36 35 35 35 35 36 38 38 40 40 39 42 46 49 48 42 46 44 40 35 33 33 34 36 37 39 40 40 41 42 45 49 51 53 57 61 62
47 41 37 32 27 25 26 30 32 31 30 32 35 38 39 38 40 44 47 51 49 48 37 40 39 33 29 28 30 30 30 32 33 34 35 36 36 38 43 46 50 53 56 60
36 32 29 24 22 23 24 24 24 25 29 30 33 35 37 37 43 46 50 54 47 48 42 34 31 26 24 25 25 26 26 28 29 31 31 31 33 35 38 40 44 47 51 54
31 28 26 23 19 18 19 21 21 22 25 30 34 37 42 43 43 47 51 54 36 39 32 26 24 23 24 23 23 23 24 25 26 28 29 30 30 32 34 37 40 44 47 49
31 27 21 19 18 16 16 16 18 21 25 30 35 40 44 42 40 42 41 40 27 26 22 22 23 23 23 22 21 22 24 24 25 25 25 27 28 30 32 35 37 39 40 42
25 21 18 15 12 11 12 14 18 22 25 28 31 32 35 35 31 31 26 19 17 15 19 19 19 20 22 22 22 23 25 25 25 25 25 27 28 29 30 31 33 35 37 39
20 17 13 9 7 8 13 15 17 20 22 23 24 24 24 21 15 17 19 20 21 22 20 19 18 20 20 21 22 23 24 25 26 26 27 27 27 28 30 32 32 32 33 35
15 12 7 3 5 8 10 12 13 15 16 16 15 13 13 17 20 17 19 21 20 20 18 18 19 20 20 20 21 22 22 24 25 26 27 28 28 28 30 32 34 34 34 33
11 7 2 1 3 6 7 8 7 9 10 9 11 16 15 17 18 19 19 19 18 18 17 18 18 18 19 20 21 23 24 25 25 27 28 30 31 30 30 31 32 33 33 33
9 6 4 2 1 0 1 4 6 7 9 11 11 14 15 16 16 17 17 17 16 16 16 17 19 20 20 21 24 26 27 28 30 30 30 32 33 33 33 33 33 34 34 32
Wind_Direction_500mb
268 297 113 225 256 267 219 245 228 267 268 268 287 282 234 220 227 201 205 206 221 219 227 249 270 283 298 311 318 318 321 322 318 318 318 316 316 316 316 314 311 309 307 306
301 259 266 264 262 257 252 257 255 256 263 274 266 232 200 187 187 184 180 219 216 218 237 250 257 263 273 277 292 307 307 309 309 312 312 313 314 312 311 309 308 307 306 304
260 261 39 310 250 240 232 229 225 244 251 169 225 224 181 201 210 212 236 250 246 254 268 261 246 261 275 287 302 308 305 305 307 309 310 311 311 309 308 307 305 303 301 300
217 47 270 243 276 204 203 236 210 149 222 207 190 176 195 257 277 280 259 252 254 263 262 249 267 277 285 294 301 304 307 309 310 311 311 310 309 308 307 306 304 302 300 298
170 206 306 297 236 205 188 273 187 196 205 183 172 208 262 302 263 270 266 278 275 264 266 271 276 283 292 298 302 305 309 311 311 312 312 312 311 310 309 306 303 301 299 297
120 186 211 236 155 138 119 275 215 215 191 172 156 154 243 309 286 279 279 285 281 269 274 278 281 292 297 302 306 309 311 313 314 315 316 316 315 313 312 309 306 303 301 300
224 229 279 238 195 149 111 259 168 202 185 180 186 217 286 305 284 283 278 270 264 267 270 273 285 293 297 302 307 312 314 315 316 318 318 318 317 317 316 314 310 307 305 306
106 115 269 185 139 166 219 173 199 199 205 221 252 278 289 291 282 285 267 266 265 264 268 278 290 295 301 305 312 313 314 316 319 320 320 321 321 322 318 314 312 313 313 312
185 205 208 187 216 245 236 212 212 234 265 272 270 276 287 285 286 276 262 257 259 272 276 285 291 298 302 311 314 313 316 318 320 322 324 327 327 321 319 321 316 313 310 308
83 219 225 249 256 258 253 252 263 276 277 272 275 273 286 284 276 275 263 260 265 272 278 284 291 297 306 314 313 314 317 320 323 325 328 332 326 327 325 323 320 315 313 311
256 252 260 261 262 266 269 268 273 277 277 275 273 273 280 279 272 269 260 263 268 276 281 288 292 300 310 313 312 314 317 321 326 328 333 329 329 334 327 326 315 309 305 304
250 255 240 255 265 271 273 268 264 270 269 266 273 282 285 280 267 256 259 264 271 276 283 287 293 301 312 310 312 314 317 324 328 331 333 330 332 333 339 330 313 307 304 303
251 259 259 259 264 268 274 267 270 271 276 275 277 278 276 265 259 260 263 267 272 276 281 287 293 305 309 309 310 314 319 326 328 332 332 332 336 336 333 337 334 327 316 313
258 263 260 259 253 270 270 269 270 270 264 263 269 269 262 257 258 261 266 271 273 275 281 287 296 307 304 306 309 314 320 327 328 335 334 334 339 337 335 334 333 334 338 328
261 257 259 265 270 268 264 258 258 258 260 264 265 264 264 262 262 265 268 270 273 277 285 292 299 304 301 302 306 314 322 328 330 336 338 338 340 340 338 337 333 331 334 337
260 262 264 261 263 261 259 255 254 259 262 264 263 262 262 262 264 268 270 272 274 278 287 294 298 299 299 300 305 314 321 327 335 336 336 341 345 344 342 341 341 340 340 342
263 259 257 250 248 247 249 254 258 261 265 265 265 263 262 263 267 272 273 273 278 285 292 294 294 295 295 297 305 314 319 329 336 336 339 344 350 349 350 350 350 349 352 352
267 263 263 259 250 246 250 257 259 260 256 257 257 259 261 266 270 270 271 273 277 284 292 288 289 288 289 294 304 310 317 330 337 342 343 350 355 357 358 360 2 2 5 9
259 256 257 257 256 250 248 251 252 251 253 256 261 267 273 279 283 284 286 286 289 295 293 283 279 279 283 291 297 305 318 326 340 347 350 355 0 2 4 7 8 10 12 14
243 242 240 238 238 240 242 245 249 256 262 268 273 278 281 283 284 288 289 292 298 292 287 278 267 270 278 286 295 302 313 324 337 346 353 359 1 3 5 7 9 12 13 15
226 223 222 225 231 238 246 249 257 267 279 284 288 291 293 295 296 292 290 290 295 278 273 262 268 273 274 281 289 300 309 318 328 339 349 356 0 3 5 8 10 12 13 15
211 209 213 219 224 230 243 260 276 284 289 294 296 297 294 296 293 288 288 290 286 272 260 260 268 272 274 281 291 299 303 309 318 325 334 343 349 357 1 1 3 7 8 10
200 205 209 210 222 245 267 284 297 303 304 302 300 299 300 304 303 299 297 291 278 268 274 273 270 272 278 284 290 295 299 304 308 311 319 325 331 337 342 347 350 352 356 359
188 188 195 204 236 276 297 309 311 313 317 318 317 317 319 318 310 294 293 288 283 281 277 276 275 273 282 286 291 292 296 301 303 306 311 315 318 323 326 330 333 336 339 343
171 174 186 224 305 312 305 317 325 330 332 331 333 328 327 329 319 314 293 290 287 284 286 281 278 280 282 287 290 294 297 300 303 307 311 315 318 320 323 325 325 330 333 335
159 167 179 266 300 323 332 338 348 2 354 343 329 327 319 315 314 309 307 304 301 297 294 290 285 289 290 292 296 298 299 301 304 305 310 313 314 319 323 324 325 327 328 332
156 160 152 159 145 122 17 9 10 4 351 347 343 330 325 321 319 317 314 311 308 306 306 304 299 295 296 299 299 300 301 303 304 307 309 309 311 314 317 320 322 323 324 328
Wind_Speed_850mb
10 7 6 7 17 15 13 22 15 41 35 38 28 9 5 6 6 26 28 32 29 31 26 20 20 21 25 30 37 42 45 47 50 58 63 66 69 74 79 83 87 89 94 96
9 9 8 13 30 21 27 29 33 39 46 35 8 7 12 16 14 17 16 23 30 28 25 25 26 28 28 30 34 42 43 48 54 64 67 71 76 83 89 96 101 105 109 109
10 5 6 15 28 30 21 22 14 18 21 6 9 13 13 12 9 9 12 15 14 20 28 28 27 29 35 40 46 46 48 54 62 65 72 77 85 94 100 105 108 109 111 111
7 7 3 17 7 11 16 14 10 4 9 16 15 15 10 11 18 22 19 19 25 26 26 22 29 36 39 44 48 52 60 65 69 73 79 86 93 99 102 103 107 110 113 114
7 10 12 25 11 11 9 14 12 12 8 26 19 5 12 10 7 8 18 26 26 26 28 30 35 40 44 46 52 60 63 69 76 84 90 93 94 95 97 100 105 107 110 113
6 11 19 11 7 20 14 18 22 25 22 24 13 3 9 19 27 38 43 40 33 31 37 44 43 45 51 56 60 62 68 77 85 88 89 92 93 95 96 97 102 102 103 96
28 12 14 12 15 16 9 16 12 23 39 28 10 21 27 37 33 36 43 36 36 41 46 44 45 50 54 57 58 67 78 85 85 85 86 88 92 92 96 98 97 91 88 83
4 2 15 24 7 15 16 18 15 27 31 32 35 43 45 41 37 39 40 41 44 44 43 45 49 52 54 55 63 75 81 83 83 83 84 85 87 91 89 83 82 83 85 85
19 14 12 44 22 30 24 23 24 27 38 50 52 47 41 43 47 42 45 47 48 48 49 49 50 51 53 59 70 77 80 81 81 83 83 81 83 82 76 73 76 79 79 81
7 12 23 43 48 46 49 46 48 48 46 44 51 41 48 48 49 48 51 50 52 53 51 50 48 48 55 62 70 74 77 76 77 81 82 82 77 67 69 70 74 78 82 90
12 23 36 50 62 67 69 62 66 62 55 54 45 46 49 54 55 56 56 55 53 51 49 48 47 50 55 62 69 72 71 71 74 78 79 81 73 65 67 66 65 74 82 85
26 45 36 46 58 58 53 52 51 45 44 46 49 51 54 56 55 54 53 53 51 48 50 47 48 54 55 60 64 65 67 68 72 75 76 76 73 74 63 65 61 64 67 70
57 68 67 73 72 69 64 59 51 50 56 56 54 52 52 51 52 52 50 48 50 51 49 45 52 53 54 56 57 55 61 63 68 68 71 72 69 72 82 78 72 65 60 63
68 72 55 69 55 72 65 63 60 55 51 49 50 51 49 50 50 48 47 47 48 50 46 48 52 49 53 53 52 51 54 56 61 61 64 64 64 67 71 76 82 87 77 66
75 72 77 75 71 65 55 50 49 49 48 49 49 48 48 47 46 45 44 44 49 49 45 49 51 46 48 47 46 47 49 52 55 55 58 58 59 64 68 72 73 77 81 75
74 67 68 63 66 66 57 51 48 49 48 47 46 45 46 45 44 41 41 45 51 48 45 49 50 48 44 43 42 42 44 47 50 50 51 52 55 61 66 67 68 70 71 71
48 55 57 54 56 51 45 39 40 41 43 44 41 39 39 40 42 42 41 45 49 49 48 49 50 43 39 39 37 38 41 42 44 44 45 46 50 53 57 58 60 63 63 60
62 59 48 34 26 34 36 36 35 35 35 35 36 38 38 40 40 39 42 46 49 48 42 46 44 40 35 33 33 34 36 37 39 40 40 41 42 45 49 51 53 57 61 62
47 41 37 32 27 25 26 30 32 31 30 32 35 38 39 38 40 44 47 51 49 48 37 40 39 33 29 28 30 30 30 32 33 34 35 36 36 38 43 46 50 53 56 60
36 32 29 24 22 23 24 24 24 25 29 30 33 35 37 37 43 46 50 54 47 48 42 34 31 26 24 25 25 26 26 28 29 31 31 31 33 35 38 40 44 47 51 54
31 28 26 23 19 18 19 21 21 22 25 30 34 37 42 43 43 47 51 54 36 39 32 26 24 23 24 23 23 23 24 25 26 28 29 30 30 32 34 37 40 44 47 49
31 27 21 19 18 16 16 16 18 21 25 30 35 40 44 42 40 42 41 40 27 26 22 22 23 23 23 22 21 22 24 24 25 25 25 27 28 30 32 35 37 39 40 42
25 21 18 15 12 11 12 14 18 22 25 28 31 32 35 35 31 31 26 19 17 15 19 19 19 20 22 22 22 23 25 25 25 25 25 27 28 29 30 31 33 35 37 39
20 17 13 9 7 8 13 15 17 20 22 23 24 24 24 21 15 17 19 20 21 22 20 19 18 20 20 21 22 23 24 25 26 26 27 27 27 28 30 32 32 32 33 35
15 12 7 3 5 8 10 12 13 15 16 16 15 13 13 17 20 17 19 21 20 20 18 18 19 20 20 20 21 22 22 24 25 26 27 28 28 28 30 32 34 34 34 33
11 7 2 1 3 6 7 8 7 9 10 9 11 16 15 17 18 19 19 19 18 18 17 18 18 18 19 20 21 23 24 25 25 27 28 30 31 30 30 31 32 33 33 33
9 6 4 2 1 0 1 4 6 7 9 11 11 14 15 16 16 17 17 17 16 16 16 17 19 20 20 21 24 26 27 28 30 30 30 32 33 33 33 33 33 34 34 32
Wind_Direction_850mb
268 297 113 225 256 267 219 245 228 267 268 268 287 282 234 220 227 201 205 206 221 219 227 249 270 283 298 311 318 318 321 322 318 318 318 316 316 316 316 314 311 309 307 306
301 259 266 264 262 257 252 257 255 256 263 274 266 232 200 187 187 184 180 219 216 218 237 250 257 263 273 277 292 307 307 309 309 312 312 313 314 312 311 309 308 307 306 304
260 261 39 310 250 240 232 229 225 244 251 169 225 224 181 201 210 212 236 250 246 254 268 261 246 261 275 287 302 308 305 305 307 309 310 311 311 309 308 307 305 303 301 300
217 47 270 243 276 204 203 236 210 149 222 207 190 176 195 257 277 280 259 252 254 263 262 249 267 277 285 294 301 304 307 309 310 311 311 310 309 308 307 306 304 302 300 298
170 206 306 297 236 205 188 273 187 196 205 183 172 208 262 302 263 270 266 278 275 264 266 271 276 283 292 298 302 305 309 311 311 312 312 312 311 310 309 306 303 301 299 297
120 186 211 236 155 138 119 275 215 215 191 172 156 154 243 309 286 279 279 285 281 269 274 278 281 292 297 302 306 309 311 313 314 315 316 316 315 313 312 309 306 303 301 300
224 229 279 238 195 149 111 259 168 202 185 180 186 217 286 305 284 283 278 270 264 267 270 273 285 293 297 302 307 312 314 315 316 318 318 318 317 317 316 314 310 307 305 306
106 115 269 185 139 166 219 173 199 199 205 221 252 278 289 291 282 285 267 266 265 264 268 278 290 295 301 305 312 313 314 316 319 320 320 321 321 322 318 314 312 313 313 312
185 205 208 187 216 245 236 212 212 234 265 272 270 276 287 285 286 276 262 257 259 272 276 285 291 298 302 311 314 313 316 318 320 322 324 327 327 321 319 321 316 313 310 308
83 219 225 249 256 258 253 252 263 276 277 272 275 273 286 284 276 275 263 260 265 272 278 284 291 297 306 314 313 314 317 320 323 325 328 332 326 327 325 323 320 315 313 311
256 252 260 261 262 266 269 268 273 277 277 275 273 273 280 279 272 269 260 263 268 276 281 288 292 300 310 313 312 314 317 321 326 328 333 329 329 334 327 326 315 309 305 304
250 255 240 255 265 271 273 268 264 270 269 266 273 282 285 280 267 256 259 264 271 276 283 287 293 301 312 310 312 314 317 324 328 331 333 330 332 333 339 330 313 307 304 303
251 259 259 259 264 268 274 267 270 271 276 275 277 278 276 265 259 260 263 267 272 276 281 287 293 305 309 309 310 314 319 326 328 332 332 332 336 336 333 337 334 327 316 313
258 263 260 259 253 270 270 269 270 270 264 263 269 269 262 257 258 261 266 271 273 275 281 287 296 307 304 306 309 314 320 327 328 335 334 334 339 337 335 334 333 334 338 328
261 257 259 265 270 268 264 258 258 258 260 264 265 264 264 262 262 265 268 270 273 277 285 292 299 304 301 302 306 314 322 328 330 336 338 338 340 340 338 337 333 331 334 337
260 262 264 261 263 261 259 255 254 259 262 264 263 262 262 262 264 268 270 272 274 278 287 294 298 299 299 300 305 314 321 327 335 336 336 341 345 344 342 341 341 340 340 342
263 259 257 250 248 247 249 254 258 261 265 265 265 263 262 263 267 272 273 273 278 285 292 294 294 295 295 297 305 314 319 329 336 336 339 344 350 349 350 350 350 349 352 352
267 263 263 259 250 246 250 257 259 260 256 257 257 259 261 266 270 270 271 273 277 284 292 288 289 288 289 294 304 310 317 330 337 342 343 350 355 357 358 360 2 2 5 9
259 256 257 257 256 250 248 251 252 251 253 256 261 267 273 279 283 284 286 286 289 295 293 283 279 279 283 291 297 305 318 326 340 347 350 355 0 2 4 7 8 10 12 14
243 242 240 238 238 240 242 245 249 256 262 268 273 278 281 283 284 288 289 292 298 292 287 278 267 270 278 286 295 302 313 324 337 346 353 359 1 3 5 7 9 12 13 15
226 223 222 225 231 238 246 249 257 267 279 284 288 291 293 295 296 292 290 290 295 278 273 262 268 273 274 281 289 300 309 318 328 339 349 356 0 3 5 8 10 12 13 15
211 209 213 219 224 230 243 260 276 284 289 294 296 297 294 296 293 288 288 290 286 272 260 260 268 272 274 281 291 299 303 309 318 325 334 343 349 357 1 1 3 7 8 10
200 205 209 210 222 245 267 284 297 303 304 302 300 299 300 304 303 299 297 291 278 268 274 273 270 272 278 284 290 295 299 304 308 311 319 325 331 337 342 347 350 352 356 359
188 188 195 204 236 276 297 309 311 313 317 318 317 317 319 318 310 294 293 288 283 281 277 276 275 273 282 286 291 292 296 301 303 306 311 315 318 323 326 330 333 336 339 343
171 174 186 224 305 312 305 317 325 330 332 331 333 328 327 329 319 314 293 290 287 284 286 281 278 280 282 287 290 294 297 300 303 307 311 315 318 320 323 325 325 330 333 335
159 167 179 266 300 323 332 338 348 2 354 343 329 327 319 315 314 309 307 304 301 297 294 290 285 289 290 292 296 298 299 301 304 305 310 313 314 319 323 324 325 327 328 332
156 160 152 159 145 122 17 9 10 4 351 347 343 330 325 321 319 317 314 311 308 306 306 304 299 295 296 299 299 300 301 303 304 307 309 309 311 314 317 320 322 323 324 328